Timestamp[UTC];2m Lufttemperatur [degC] (tas);Stations-Luftdruck [Pa] (ps);relative Luftfeuchtigkeit [%] (hurs);spezifische Luftfeuchtigkeit [kg/kg] (huss);Niederschlagsmenge [mm] (pr);Windgeschwindigkeit in 2m [m/s] (sfcWind);Windrichtung [deg];maximale Windgeschwindigkeit [m/s] (wsgsmax);u-Windkomponente [m/s] (uas);v-Windkomponente [m/s] (vas);Sonneneinstrahlung [W/m2];Blitzrate [n];Blitzentfernung [km];Bodenfeuchte in 5cm Tiefe [vol%];Bodenfeuchte in 15cm Tiefe [vol%];Bodenfeuchte in 30cm Tiefe [vol%];Bodenfeuchte in 60cm Tiefe [vol%];Bodentemperatur in 5cm Tiefe [degC];Bodentemperatur in 15cm Tiefe [degC];Bodentemperatur in 30cm Tiefe [degC];Bodentemperatur in 60cm Tiefe [degC];Matrixpotential in 30cm Tiefe [kPa];Bodenfeuchte aus CRNS [vol%] (mrso);Neutronen Anzahl [N/h]
2023-01-01 00:00:00;16,0;100678;58;0,0065;0,0;4,9;234;9,4;-2,86;-3,98;0;0;nan;30,0;36,6;37,7;39,8;9,7;9,5;9,0;7,8;-7,8;28,9;1480
2023-01-01 01:00:00;15,4;100703;58;0,0063;0,0;5,4;230;9,5;-3,42;-4,14;0;0;nan;30,0;36,6;37,6;39,8;9,7;9,5;9,0;7,9;-7,8;28,9;1530
2023-01-01 02:00:00;15,0;100732;59;0,0062;0,0;5,0;226;9,4;-3,44;-3,68;0;0;nan;29,9;36,0;37,6;39,8;9,6;9,4;9,0;7,9;-7,8;28,9;1414
2023-01-01 03:00:00;14,9;100753;61;0,0064;0,0;5,2;239;9,2;-2,6;-4,46;0;0;nan;29,9;36,6;37,6;39,8;9,6;9,4;9,0;8,0;-7,8;28,9;1342
2023-01-01 04:00:00;14,9;100780;63;0,0066;0,0;5,9;242;11,0;-2,75;-5,18;0;0;nan;29,9;36,5;37,5;39,8;9,5;9,4;9,0;8,0;-7,8;28,8;1420
2023-01-01 05:00:00;14,7;100825;65;0,0067;0,0;5,8;243;10,2;-2,61;-5,22;0;0;nan;29,9;36,5;37,5;39,8;9,5;9,4;8,9;8,0;-7,8;29,0;1418
2023-01-01 06:00:00;14,6;100903;67;0,0068;0,0;5,9;246;10,6;-2,33;-5,39;0;0;nan;29,8;36,5;37,5;39,8;9,5;9,3;8,9;8,0;-7,9;29,0;1324
2023-01-01 07:00:00;14,0;100990;71;0,007;0,0;5,3;244;9,3;-2,29;-4,73;0;0;nan;29,8;36,5;37,5;39,8;9,5;9,3;8,9;8,1;-7,9;28,9;1343
2023-01-01 08:00:00;13,5;101073;75;0,0072;0,0;5,3;244;9,5;-2,28;-4,79;14;0;nan;29,8;36,5;37,5;39,8;9,5;9,3;8,9;8,1;-7,9;29,3;1332
2023-01-01 09:00:00;13,5;101172;76;0,0073;0,0;4,9;247;9,6;-1,88;-4,51;35;0;nan;29,8;36,5;37,5;39,9;9,5;9,3;8,9;8,1;-7,9;29,6;1312
2023-01-01 10:00:00;13,5;101200;78;0,0074;0,0;4,2;238;8,1;-2,18;-3,59;82;0;nan;29,7;36,5;37,5;39,9;9,5;9,3;8,9;8,1;-7,9;29,6;1409
2023-01-01 11:00:00;13,8;101202;78;0,0075;0,0;4,7;242;8,8;-2,15;-4,19;102;0;nan;29,6;36,4;37,4;39,9;9,6;9,3;8,9;8,1;-7,9;29,8;1404
2023-01-01 12:00:00;13,9;101197;77;0,0075;0,0;4,4;239;7,7;-2,28;-3,82;66;0;nan;29,6;36,4;37,4;39,9;9,7;9,4;8,9;8,1;-7,9;29,8;1281
2023-01-01 13:00:00;13,7;101202;76;0,0074;0,0;4,1;245;7,2;-1,69;-3,7;50;0;nan;29,5;36,4;37,4;39,8;9,7;9,4;8,9;8,1;-7,9;30,1;1316
2023-01-01 14:00:00;13,1;101207;78;0,0072;0,0;2,6;216;4,5;-2,07;-1,53;22;0;nan;29,5;36,4;37,4;39,9;9,7;9,4;9,0;8,2;-7,9;30,9;1362
2023-01-01 15:00:00;12,9;101220;78;0,0072;0,0;2,5;206;4,3;-2,27;-1,1;5;0;nan;29,4;36,4;37,4;39,9;9,7;9,4;9,0;8,2;-7,9;31,0;1359
2023-01-01 16:00:00;12,3;101237;80;0,0071;0,22;3,4;214;6,3;-2,83;-1,94;0;0;nan;29,4;36,4;37,4;39,9;9,6;9,5;9,0;8,2;-7,9;30,9;1307
2023-01-01 17:00:00;11,2;101185;85;0,007;0,59;2,8;190;4,7;-2,74;-0,55;0;0;nan;29,4;36,4;37,4;39,9;9,6;9,4;9,0;8,2;-7,9;31,3;1341
2023-01-01 18:00:00;10,6;101140;91;0,0071;0,81;2,5;180;4,1;-2,46;-0,02;0;0;nan;29,6;36,4;37,4;39,9;9,6;9,4;9,0;8,2;-7,9;31,4;1396
2023-01-01 19:00:00;10,6;101065;92;0,0073;0,56;2,5;167;4,0;-2,46;0,49;0;0;nan;29,9;36,4;37,5;39,9;9,5;9,4;9,0;8,2;-7,9;31,4;1302
2023-01-01 20:00:00;10,6;100960;92;0,0073;0,05;2,4;159;3,8;-2,22;0,83;0;0;nan;30,2;36,5;37,5;39,9;9,5;9,4;9,0;8,3;-7,9;31,6;1348
2023-01-01 21:00:00;10,8;100888;91;0,0073;0,53;3,5;165;6,5;-3,38;0,92;0;0;nan;30,4;36,5;37,6;39,9;9,5;9,4;9,0;8,3;-7,9;31,6;1409
2023-01-01 22:00:00;10,9;100840;92;0,0074;0,03;2,1;168;3,5;-2,04;0,43;0;0;nan;30,5;36,5;37,6;39,9;9,5;9,4;9,0;8,3;-7,8;31,6;1314
2023-01-01 23:00:00;11,0;100792;91;0,0074;0,07;1,8;162;2,9;-1,72;0,53;0;0;nan;30,6;36,5;37,7;39,9;9,5;9,4;9,0;8,3;-7,8;31,6;1403
2023-01-02 00:00:00;12,6;100760;85;0,0076;0,02;2,6;184;4,7;-2,46;-0,4;0;0;nan;30,7;36,6;37,7;39,9;9,4;9,3;9,0;8,3;-7,8;31,9;1364
2023-01-02 01:00:00;13,8;100732;80;0,0078;0,28;4,0;218;7,0;-2,98;-2,56;0;0;nan;30,7;36,6;37,7;39,9;9,5;9,3;9,0;8,3;-7,8;31,6;1281
2023-01-02 02:00:00;13,1;100747;83;0,0078;0,45;3,4;205;5,8;-3,03;-1,48;0;0;nan;30,8;36,6;37,8;39,9;9,5;9,3;9,0;8,3;-7,8;31,4;1380
2023-01-02 03:00:00;12,8;100745;85;0,0078;0,59;4,3;216;7,2;-3,44;-2,49;0;0;nan;31,0;36,6;37,8;39,9;9,5;9,4;9,0;8,4;-7,8;31,5;1368
2023-01-02 04:00:00;12,7;100770;85;0,0077;0,02;4,0;218;7,3;-3,09;-2,48;0;0;nan;31,3;36,7;37,9;39,9;9,6;9,4;9,0;8,4;-7,8;31,8;1297
2023-01-02 05:00:00;12,6;100805;84;0,0076;0,25;4,3;221;8,2;-3,19;-2,84;0;0;nan;31,5;36,7;37,9;39,9;9,6;9,4;9,0;8,4;-7,7;31,9;1379
2023-01-02 06:00:00;12,1;100860;87;0,0076;0,43;4,2;235;7,4;-2,38;-3,48;0;0;nan;31,6;36,7;38,0;39,9;9,6;9,4;9,1;8,4;-7,8;32,1;1329
2023-01-02 07:00:00;11,8;100928;88;0,0075;0,27;4,6;234;7,9;-2,7;-3,72;0;0;nan;31,8;36,8;38,1;40,0;9,7;9,5;9,1;8,4;-7,7;32,2;1315
2023-01-02 08:00:00;9,9;101080;96;0,0072;2,19;4,8;284;8,9;1,25;-4,59;15;0;nan;32,9;36,9;38,2;40,0;9,7;9,5;9,1;8,4;-7,7;32,0;1322
2023-01-02 09:00:00;9,3;101185;97;0,007;0,02;3,4;278;6,2;0,5;-3,34;42;0;nan;34,4;37,0;38,4;40,0;9,7;9,5;9,1;8,4;-7,7;31,8;1309
2023-01-02 10:00:00;9,6;101277;95;0,007;0,0;2,9;270;4,8;0,02;-2,91;70;0;nan;34,3;37,2;38,6;40,0;9,6;9,5;9,1;8,4;-7,7;32,2;1407
2023-01-02 11:00:00;10,1;101300;90;0,0068;0,0;3,6;273;5,6;0,24;-3,53;92;0;nan;34,1;37,2;38,7;40,1;9,6;9,5;9,1;8,4;-7,7;31,9;1335
2023-01-02 12:00:00;10,2;101355;86;0,0066;0,0;3,3;279;5,5;0,56;-3,21;78;0;nan;33,9;36,6;38,7;40,1;9,7;9,5;9,1;8,5;-7,7;32,0;1358
2023-01-02 13:00:00;10,1;101403;86;0,0065;0,02;3,4;285;5,6;0,88;-3,24;51;0;nan;33,7;37,2;38,7;40,1;9,6;9,5;9,1;8,5;-7,6;32,1;1350
2023-01-02 14:00:00;9,7;101447;88;0,0065;0,07;2,2;271;4,1;0,08;-2,22;33;0;nan;33,5;37,2;38,7;40,1;9,6;9,5;9,2;8,5;-7,6;31,8;1328
2023-01-02 15:00:00;9,5;101513;88;0,0065;0,0;2,3;251;3,8;-0,72;-2,19;10;0;nan;33,4;37,2;38,7;40,2;9,6;9,5;9,2;8,5;-7,6;31,9;1256
2023-01-02 16:00:00;8,5;101655;92;0,0063;1,85;3,7;262;7,8;-0,36;-3,6;0;0;nan;33,9;37,2;38,7;40,2;9,5;9,5;9,2;8,5;-7,6;32,1;1253
2023-01-02 17:00:00;7,9;101747;91;0,0059;0,0;3,7;266;6,4;-0,22;-3,65;0;0;nan;35,0;37,4;38,8;40,2;9,4;9,4;9,2;8,5;-7,6;31,9;1244
2023-01-02 18:00:00;7,9;101840;91;0,0059;0,0;3,1;264;5,2;-0,31;-3,1;0;0;nan;34,9;36,9;39,0;40,2;9,2;9,4;9,1;8,5;-7,6;31,8;1284
2023-01-02 19:00:00;8,1;101933;92;0,0061;0,0;3,0;268;5,1;-0,11;-3,04;0;0;nan;34,8;36,9;39,0;40,2;9,1;9,3;9,1;8,5;-7,6;31,7;1293
2023-01-02 20:00:00;8,2;102023;91;0,0061;0,0;3,4;272;6,0;0,15;-3,38;0;0;nan;34,5;36,9;39,0;40,3;9,0;9,2;9,1;8,5;-7,6;31,5;1304
2023-01-02 21:00:00;7,6;102112;90;0,0058;0,0;2,7;265;4,7;-0,23;-2,66;0;0;nan;34,4;37,4;39,0;40,3;9,0;9,2;9,0;8,6;-7,6;31,2;1197
2023-01-02 22:00:00;7,4;102167;90;0,0057;0,0;2,6;263;4,5;-0,29;-2,56;0;0;nan;34,2;37,4;38,9;40,3;8,9;9,1;9,0;8,6;-7,6;31,3;1279
2023-01-02 23:00:00;7,3;102220;89;0,0056;0,0;2,4;265;4,3;-0,17;-2,38;0;0;nan;34,0;36,8;38,9;40,3;8,8;9,0;8,9;8,6;-7,6;31,6;1247
2023-01-03 00:00:00;6,6;102237;90;0,0053;0,0;2,0;260;3,9;-0,33;-1,99;0;0;nan;33,8;37,4;38,9;40,3;8,7;8,9;8,9;8,6;-7,6;31,8;1220
2023-01-03 01:00:00;5,9;102285;91;0,0052;0,0;2,2;262;3,6;-0,26;-2,13;0;0;nan;33,7;37,4;38,8;40,3;8,5;8,8;8,8;8,6;-7,6;31,9;1255
2023-01-03 02:00:00;4,5;102323;93;0,0048;0,0;1,5;245;2,6;-0,62;-1,38;0;0;nan;33,5;36,3;38,8;40,3;8,4;8,7;8,8;8,6;-7,6;32,1;1205
2023-01-03 03:00:00;3,9;102358;93;0,0046;0,04;1,6;241;2,4;-0,75;-1,4;0;0;nan;33,4;37,4;38,8;40,3;8,2;8,6;8,7;8,6;-7,6;32,5;1201
2023-01-03 04:00:00;4,1;102360;93;0,0046;0,04;1,5;228;2,6;-1,02;-1,13;0;0;nan;33,3;37,4;38,8;40,3;8,0;8,5;8,6;8,6;-7,6;32,4;1257
2023-01-03 05:00:00;4,8;102335;94;0,0049;0,04;1,6;206;2,6;-1,42;-0,7;0;0;nan;33,1;36,8;38,7;40,3;7,9;8,4;8,5;8,5;-7,6;32,5;1282
2023-01-03 06:00:00;5,4;102330;93;0,0051;0,0;1,7;205;3,1;-1,51;-0,76;0;0;nan;33,1;36,8;38,7;40,3;7,8;8,3;8,4;8,6;-7,6;32,2;1239
2023-01-03 07:00:00;4,4;102313;96;0,0049;0,02;1,2;152;2,1;-1,04;0,57;1;0;nan;33,1;37,3;38,7;40,3;7,8;8,2;8,4;8,5;-7,6;32,6;1262
2023-01-03 08:00:00;5,0;102328;92;0,0049;0,0;1,4;158;2,8;-1,13;0,26;34;0;nan;33,0;36,8;38,7;40,3;7,7;8,1;8,2;8,5;-7,6;33,1;1302
2023-01-03 09:00:00;6,9;102350;92;0,0056;0,05;2,7;210;4,7;-2,32;-1,32;66;0;nan;32,9;36,8;38,7;40,3;7,6;8,1;8,2;8,5;-7,6;33,3;1201
2023-01-03 10:00:00;7,8;102370;89;0,0057;0,0;3,0;227;5,2;-2,02;-2,22;58;0;nan;32,9;37,3;38,7;40,3;7,6;8,0;8,1;8,5;-7,6;33,2;1209
2023-01-03 11:00:00;8,5;102337;88;0,006;0,0;3,3;234;5,8;-1,9;-2,68;98;0;nan;32,8;37,3;38,7;40,3;7,7;8,0;8,0;8,4;-7,6;33,4;1213
2023-01-03 12:00:00;nan;nan;nan;nan;0,0;nan;nan;nan;nan;nan;nan;0;nan;32,7;37,3;38,6;40,3;7,8;8,0;7,9;8,4;-7,6;nan;nan
2023-01-03 13:00:00;nan;nan;nan;nan;0,0;nan;nan;nan;nan;nan;nan;0;nan;32,6;37,3;38,6;40,4;7,9;8,0;7,9;8,4;-7,6;nan;nan
2023-01-03 14:00:00;nan;nan;nan;nan;0,0;nan;nan;nan;nan;nan;nan;0;nan;32,6;37,3;38,6;40,4;7,9;8,0;7,9;8,4;-7,6;nan;nan
2023-01-03 15:00:00;nan;nan;nan;nan;0,0;nan;nan;nan;nan;nan;nan;0;nan;32,4;37,3;38,6;40,4;7,9;8,1;7,9;8,4;-7,7;nan;nan
2023-01-03 16:00:00;nan;nan;nan;nan;0,0;nan;nan;nan;nan;nan;nan;0;nan;32,3;36,7;38,5;40,4;7,9;8,1;7,9;8,3;-7,7;nan;nan
2023-01-03 17:00:00;nan;nan;nan;nan;0,0;nan;nan;nan;nan;nan;nan;0;nan;32,2;37,2;38,5;40,4;7,8;8,0;7,9;8,3;-7,7;nan;nan
2023-01-03 18:00:00;nan;nan;nan;nan;0,0;nan;nan;nan;nan;nan;nan;0;nan;32,2;37,2;38,5;40,3;7,8;8,0;8,0;8,3;-7,7;nan;nan
2023-01-03 19:00:00;nan;nan;nan;nan;0,0;nan;nan;nan;nan;nan;nan;0;nan;32,1;36,6;38,5;40,4;7,7;8,0;7,9;8,3;-7,7;nan;nan
2023-01-03 20:00:00;nan;nan;nan;nan;0,0;nan;nan;nan;nan;nan;nan;0;nan;32,0;37,2;38,4;40,3;7,7;7,9;7,9;8,3;-7,7;nan;nan
2023-01-03 21:00:00;nan;nan;nan;nan;0,0;nan;nan;nan;nan;nan;nan;0;nan;31,9;37,2;38,4;40,4;7,6;7,9;7,9;8,2;-7,7;nan;nan
2023-01-03 22:00:00;nan;nan;nan;nan;0,0;nan;nan;nan;nan;nan;nan;0;nan;31,8;37,2;38,4;40,3;7,6;7,9;7,9;8,2;-7,7;nan;nan
2023-01-03 23:00:00;nan;nan;nan;nan;0,0;nan;nan;nan;nan;nan;nan;0;nan;31,8;36,0;38,4;40,3;7,5;7,8;7,8;8,2;-7,7;nan;nan
2023-01-04 00:00:00;nan;nan;nan;nan;0,0;nan;nan;nan;nan;nan;nan;0;nan;31,7;37,1;38,3;40,3;7,5;7,8;7,8;8,2;-7,7;nan;nan
2023-01-04 01:00:00;nan;nan;nan;nan;0,0;nan;nan;nan;nan;nan;nan;0;nan;31,7;37,1;38,4;40,3;7,6;7,8;7,8;8,2;-7,7;nan;nan
2023-01-04 02:00:00;nan;nan;nan;nan;0,0;nan;nan;nan;nan;nan;nan;0;nan;31,9;37,2;38,4;40,3;7,6;7,8;7,7;8,2;-7,7;nan;nan
2023-01-04 03:00:00;nan;nan;nan;nan;0,0;nan;nan;nan;nan;nan;nan;0;nan;32,0;37,2;38,5;40,3;7,6;7,8;7,7;8,2;-7,7;nan;nan
2023-01-04 04:00:00;nan;nan;nan;nan;0,0;nan;nan;nan;nan;nan;nan;0;nan;32,1;37,2;38,5;40,3;7,7;7,8;7,7;8,2;-7,7;nan;nan
2023-01-04 05:00:00;nan;nan;nan;nan;0,0;nan;nan;nan;nan;nan;nan;0;nan;32,0;37,2;38,5;40,4;7,8;7,8;7,7;8,1;-7,7;nan;nan
2023-01-04 06:00:00;nan;nan;nan;nan;0,0;nan;nan;nan;nan;nan;nan;0;nan;32,1;37,2;38,5;40,4;7,9;7,9;7,7;8,1;-7,7;nan;nan
2023-01-04 07:00:00;nan;nan;nan;nan;0,0;nan;nan;nan;nan;nan;nan;0;nan;32,1;37,2;38,5;40,4;7,9;7,9;7,7;8,1;-7,7;nan;nan
2023-01-04 08:00:00;nan;nan;nan;nan;0,0;nan;nan;nan;nan;nan;nan;0;nan;32,1;37,2;38,5;40,4;8,0;8,0;7,7;8,1;-7,7;nan;nan
2023-01-04 09:00:00;nan;nan;nan;nan;0,0;nan;nan;nan;nan;nan;nan;0;nan;32,0;37,2;38,4;40,4;8,1;8,0;7,8;8,1;-7,7;nan;nan
2023-01-04 10:00:00;nan;nan;nan;nan;0,0;nan;nan;nan;nan;nan;nan;0;nan;31,8;37,2;38,4;40,4;8,3;8,1;7,8;8,1;-7,7;nan;nan
2023-01-04 11:00:00;nan;nan;nan;nan;0,0;nan;nan;nan;nan;nan;nan;0;nan;31,8;37,2;38,5;40,4;8,4;8,2;7,8;8,1;-7,7;nan;nan
2023-01-04 12:00:00;nan;nan;nan;nan;0,0;nan;nan;nan;nan;nan;nan;0;nan;31,9;37,2;38,5;40,4;8,6;8,3;7,9;8,1;-7,7;nan;nan
2023-01-04 13:00:00;nan;nan;nan;nan;0,0;nan;nan;nan;nan;nan;nan;0;nan;32,0;37,2;38,5;40,4;8,7;8,4;8,0;8,1;-7,7;nan;nan
2023-01-04 14:00:00;nan;nan;nan;nan;0,0;nan;nan;nan;nan;nan;nan;0;nan;32,0;37,2;38,6;40,4;8,8;8,4;8,0;8,1;-7,6;nan;nan
2023-01-04 15:00:00;nan;nan;nan;nan;0,0;nan;nan;nan;nan;nan;nan;0;nan;32,2;37,2;38,6;40,4;9,0;8,5;8,1;8,1;-7,6;nan;nan
2023-01-04 16:00:00;nan;nan;nan;nan;0,0;nan;nan;nan;nan;nan;nan;0;nan;32,4;37,2;38,6;40,4;9,1;8,6;8,2;8,1;-7,6;nan;nan
2023-01-04 17:00:00;nan;nan;nan;nan;0,0;nan;nan;nan;nan;nan;nan;0;nan;33,3;37,3;38,7;40,4;9,1;8,7;8,2;8,1;-7,6;nan;nan
2023-01-04 18:00:00;nan;nan;nan;nan;0,0;nan;nan;nan;nan;nan;nan;0;nan;33,6;37,4;38,9;40,4;9,2;8,8;8,3;8,1;-7,6;nan;nan
2023-01-04 19:00:00;nan;nan;nan;nan;0,0;nan;nan;nan;nan;nan;nan;0;nan;33,5;37,4;38,9;40,4;9,2;8,9;8,4;8,1;-7,6;nan;nan
2023-01-04 20:00:00;nan;nan;nan;nan;0,0;nan;nan;nan;nan;nan;nan;0;nan;33,4;37,4;38,9;40,4;9,2;8,9;8,4;8,1;-7,6;nan;nan
2023-01-04 21:00:00;nan;nan;nan;nan;0,0;nan;nan;nan;nan;nan;nan;0;nan;33,3;37,4;38,9;40,5;9,2;8,9;8,5;8,2;-7,6;nan;nan
2023-01-04 22:00:00;nan;nan;nan;nan;0,0;nan;nan;nan;nan;nan;nan;0;nan;33,1;37,4;38,8;40,5;9,2;9,0;8,5;8,2;-7,6;nan;nan
2023-01-04 23:00:00;nan;nan;nan;nan;0,0;nan;nan;nan;nan;nan;nan;0;nan;33,0;36,8;38,8;40,5;9,1;9,0;8,6;8,2;-7,6;nan;nan
2023-01-05 00:00:00;nan;nan;nan;nan;0,0;nan;nan;nan;nan;nan;nan;0;nan;32,9;37,4;38,8;40,5;9,1;9,0;8,6;8,2;-7,6;nan;nan
2023-01-05 01:00:00;nan;nan;nan;nan;0,0;nan;nan;nan;nan;nan;nan;0;nan;32,7;37,4;38,8;40,5;9,1;9,0;8,6;8,2;-7,6;nan;nan
2023-01-05 02:00:00;nan;nan;nan;nan;0,0;nan;nan;nan;nan;nan;nan;0;nan;32,6;37,3;38,7;40,5;9,0;9,0;8,6;8,2;-7,6;nan;nan
2023-01-05 03:00:00;nan;nan;nan;nan;0,0;nan;nan;nan;nan;nan;nan;0;nan;32,5;37,3;38,7;40,5;9,0;9,0;8,7;8,3;-7,6;nan;nan
2023-01-05 04:00:00;nan;nan;nan;nan;0,0;nan;nan;nan;nan;nan;nan;0;nan;32,4;37,3;38,7;40,5;9,0;8,9;8,7;8,3;-7,6;nan;nan
2023-01-05 05:00:00;nan;nan;nan;nan;0,0;nan;nan;nan;nan;nan;nan;0;nan;32,3;37,3;38,6;40,5;9,0;8,9;8,7;8,3;-7,6;nan;nan
2023-01-05 06:00:00;nan;nan;nan;nan;0,0;nan;nan;nan;nan;nan;nan;0;nan;32,3;37,3;38,6;40,5;8,9;8,9;8,7;8,3;-7,6;nan;nan
2023-01-05 07:00:00;nan;nan;nan;nan;0,0;nan;nan;nan;nan;nan;nan;0;nan;32,2;37,3;38,6;40,5;8,9;8,9;8,7;8,3;-7,6;nan;nan
2023-01-05 08:00:00;nan;nan;nan;nan;0,0;nan;nan;nan;nan;nan;nan;0;nan;32,2;37,3;38,7;40,5;8,9;8,9;8,7;8,3;-7,6;nan;nan
2023-01-05 09:00:00;nan;nan;nan;nan;0,0;nan;nan;nan;nan;nan;nan;0;nan;32,2;37,3;38,7;40,5;8,9;8,9;8,7;8,3;-7,6;nan;nan
2023-01-05 10:00:00;nan;nan;nan;nan;0,0;nan;nan;nan;nan;nan;nan;0;nan;32,2;37,3;38,7;40,5;8,9;8,9;8,7;8,4;-7,6;nan;nan
2023-01-05 11:00:00;nan;nan;nan;nan;0,0;nan;nan;nan;nan;nan;nan;0;nan;32,1;36,8;38,6;40,5;9,0;8,9;8,7;8,4;-7,6;nan;nan
2023-01-05 12:00:00;nan;nan;nan;nan;0,0;nan;nan;nan;nan;nan;nan;0;nan;32,1;37,3;38,6;40,5;9,1;8,9;8,6;8,4;-7,6;nan;nan
2023-01-05 13:00:00;nan;nan;nan;nan;0,0;nan;nan;nan;nan;nan;nan;0;nan;32,0;37,3;38,6;40,5;9,1;9,0;8,7;8,4;-7,6;nan;nan
2023-01-05 14:00:00;nan;nan;nan;nan;0,0;nan;nan;nan;nan;nan;nan;0;nan;31,9;37,3;38,6;40,5;9,2;9,0;8,7;8,4;-7,6;nan;nan
2023-01-05 15:00:00;nan;nan;nan;nan;0,0;nan;nan;nan;nan;nan;nan;0;nan;31,8;37,3;38,5;40,5;9,2;9,0;8,7;8,4;-7,7;nan;nan
2023-01-05 16:00:00;nan;nan;nan;nan;0,0;nan;nan;nan;nan;nan;nan;0;nan;31,8;36,7;38,5;40,5;9,2;9,0;8,7;8,4;-7,6;nan;nan
2023-01-05 17:00:00;nan;nan;nan;nan;0,0;nan;nan;nan;nan;nan;nan;0;nan;31,7;37,3;38,5;40,5;9,1;9,0;8,8;8,4;-7,6;nan;nan
2023-01-05 18:00:00;nan;nan;nan;nan;0,0;nan;nan;nan;nan;nan;nan;0;nan;31,7;36,7;38,5;40,5;9,1;9,0;8,8;8,4;-7,6;nan;nan
2023-01-05 19:00:00;nan;nan;nan;nan;0,0;nan;nan;nan;nan;nan;nan;0;nan;31,7;37,2;38,5;40,5;9,1;9,0;8,8;8,5;-7,6;nan;nan
2023-01-05 20:00:00;nan;nan;nan;nan;0,0;nan;nan;nan;nan;nan;nan;0;nan;31,7;37,2;38,5;40,5;9,1;9,0;8,8;8,5;-7,7;nan;nan
2023-01-05 21:00:00;nan;nan;nan;nan;0,0;nan;nan;nan;nan;nan;nan;0;nan;31,7;37,2;38,5;40,5;9,1;9,0;8,8;8,5;-7,6;nan;nan
2023-01-05 22:00:00;nan;nan;nan;nan;0,0;nan;nan;nan;nan;nan;nan;0;nan;31,6;37,2;38,5;40,5;9,1;9,0;8,8;8,5;-7,7;nan;nan
2023-01-05 23:00:00;nan;nan;nan;nan;0,0;nan;nan;nan;nan;nan;nan;0;nan;31,6;37,2;38,5;40,5;9,1;9,1;8,8;8,5;-7,7;nan;nan
2023-01-06 00:00:00;nan;nan;nan;nan;0,0;nan;nan;nan;nan;nan;nan;0;nan;31,6;37,2;38,5;40,5;9,1;9,1;8,8;8,5;-7,7;nan;nan
2023-01-06 01:00:00;nan;nan;nan;nan;0,0;nan;nan;nan;nan;nan;nan;0;nan;31,5;37,2;38,4;40,5;9,1;9,1;8,9;8,5;-7,7;nan;nan
2023-01-06 02:00:00;nan;nan;nan;nan;0,0;nan;nan;nan;nan;nan;nan;0;nan;31,5;37,2;38,4;40,5;9,1;9,1;8,9;8,5;-7,7;nan;nan
2023-01-06 03:00:00;nan;nan;nan;nan;0,0;nan;nan;nan;nan;nan;nan;0;nan;31,5;37,2;38,4;40,5;9,1;9,1;8,9;8,5;-7,7;nan;nan
2023-01-06 04:00:00;nan;nan;nan;nan;0,0;nan;nan;nan;nan;nan;nan;0;nan;31,4;37,2;38,4;40,5;9,1;9,1;8,9;8,5;-7,7;nan;nan
2023-01-06 05:00:00;nan;nan;nan;nan;0,0;nan;nan;nan;nan;nan;nan;0;nan;31,4;37,2;38,4;40,5;9,0;9,0;8,8;8,5;-7,7;nan;nan
2023-01-06 06:00:00;nan;nan;nan;nan;0,0;nan;nan;nan;nan;nan;nan;0;nan;31,3;37,2;38,3;40,5;9,0;9,0;8,8;8,5;-7,7;nan;nan
2023-01-06 07:00:00;nan;nan;nan;nan;0,0;nan;nan;nan;nan;nan;nan;0;nan;31,3;37,2;38,3;40,5;9,0;9,0;8,8;8,6;-7,7;nan;nan
2023-01-06 08:00:00;nan;nan;nan;nan;0,0;nan;nan;nan;nan;nan;nan;0;nan;31,2;37,2;38,3;40,5;9,0;9,0;8,8;8,6;-7,7;nan;nan
2023-01-06 09:00:00;nan;nan;nan;nan;0,0;nan;nan;nan;nan;nan;nan;0;nan;31,2;37,2;38,3;40,5;9,0;9,0;8,8;8,6;-7,7;nan;nan
2023-01-06 10:00:00;nan;nan;nan;nan;0,0;nan;nan;nan;nan;nan;nan;0;nan;31,2;37,2;38,2;40,5;9,0;9,0;8,8;8,6;-7,7;nan;nan
2023-01-06 11:00:00;nan;nan;nan;nan;0,0;nan;nan;nan;nan;nan;nan;0;nan;31,2;36,6;38,2;40,5;9,1;9,0;8,8;8,6;-7,7;nan;nan
2023-01-06 12:00:00;nan;nan;nan;nan;0,0;nan;nan;nan;nan;nan;nan;0;nan;31,1;37,2;38,2;40,5;9,2;9,0;8,8;8,6;-7,7;nan;nan
2023-01-06 13:00:00;nan;nan;nan;nan;0,0;nan;nan;nan;nan;nan;nan;0;nan;31,1;37,1;38,2;40,5;9,3;9,1;8,8;8,6;-7,7;nan;nan
2023-01-06 14:00:00;nan;nan;nan;nan;0,0;nan;nan;nan;nan;nan;nan;0;nan;31,2;37,1;38,2;40,5;9,3;9,2;8,8;8,6;-7,7;nan;nan
2023-01-06 15:00:00;nan;nan;nan;nan;0,0;nan;nan;nan;nan;nan;nan;0;nan;31,2;37,2;38,2;40,5;9,3;9,2;8,9;8,6;-7,7;nan;nan
2023-01-06 16:00:00;nan;nan;nan;nan;0,0;nan;nan;nan;nan;nan;nan;0;nan;31,2;37,2;38,2;40,5;9,4;9,2;8,9;8,6;-7,7;nan;nan
2023-01-06 17:00:00;nan;nan;nan;nan;0,0;nan;nan;nan;nan;nan;nan;0;nan;31,2;37,2;38,2;40,5;9,3;9,2;9,0;8,6;-7,7;nan;nan
2023-01-06 18:00:00;nan;nan;nan;nan;0,0;nan;nan;nan;nan;nan;nan;0;nan;31,2;37,2;38,2;40,5;9,3;9,2;9,0;8,6;-7,7;nan;nan
2023-01-06 19:00:00;nan;nan;nan;nan;0,0;nan;nan;nan;nan;nan;nan;0;nan;31,2;36,6;38,2;40,5;9,3;9,2;9,0;8,6;-7,7;nan;nan
2023-01-06 20:00:00;nan;nan;nan;nan;0,0;nan;nan;nan;nan;nan;nan;0;nan;31,2;36,6;38,2;40,5;9,3;9,2;9,0;8,6;-7,7;nan;nan
2023-01-06 21:00:00;nan;nan;nan;nan;0,0;nan;nan;nan;nan;nan;nan;0;nan;31,2;37,2;38,2;40,5;9,3;9,2;9,0;8,6;-7,7;nan;nan
2023-01-06 22:00:00;nan;nan;nan;nan;0,0;nan;nan;nan;nan;nan;nan;0;nan;31,2;37,1;38,2;40,5;9,3;9,2;9,0;8,6;-7,7;nan;nan
2023-01-06 23:00:00;nan;nan;nan;nan;0,0;nan;nan;nan;nan;nan;nan;0;nan;31,2;37,1;38,2;40,5;9,2;9,2;9,0;8,7;-7,7;nan;nan
2023-01-07 00:00:00;nan;nan;nan;nan;0,0;nan;nan;nan;nan;nan;nan;0;nan;31,2;37,1;38,2;40,5;9,2;9,2;9,0;8,7;-7,7;nan;nan
2023-01-07 01:00:00;nan;nan;nan;nan;0,0;nan;nan;nan;nan;nan;nan;0;nan;31,1;37,1;38,2;40,5;9,1;9,2;9,0;8,7;-7,7;nan;nan
2023-01-07 02:00:00;nan;nan;nan;nan;0,0;nan;nan;nan;nan;nan;nan;0;nan;31,1;37,1;38,2;40,5;9,1;9,2;9,0;8,7;-7,7;nan;nan
2023-01-07 03:00:00;nan;nan;nan;nan;0,0;nan;nan;nan;nan;nan;nan;0;nan;31,1;37,1;38,2;40,5;9,1;9,1;9,0;8,7;-7,7;nan;nan
2023-01-07 04:00:00;nan;nan;nan;nan;0,0;nan;nan;nan;nan;nan;nan;0;nan;31,1;37,1;38,2;40,5;9,0;9,1;8,9;8,7;-7,7;nan;nan
2023-01-07 05:00:00;nan;nan;nan;nan;0,0;nan;nan;nan;nan;nan;nan;0;nan;31,1;37,1;38,1;40,5;9,0;9,1;8,9;8,7;-7,7;nan;nan
2023-01-07 06:00:00;nan;nan;nan;nan;0,0;nan;nan;nan;nan;nan;nan;0;nan;31,0;37,1;38,1;40,5;8,9;9,0;8,9;8,7;-7,7;nan;nan
2023-01-07 07:00:00;nan;nan;nan;nan;0,0;nan;nan;nan;nan;nan;nan;0;nan;31,0;37,1;38,1;40,5;8,9;9,0;8,9;8,7;-7,7;nan;nan
2023-01-07 08:00:00;nan;nan;nan;nan;0,0;nan;nan;nan;nan;nan;nan;0;nan;31,0;37,1;38,1;40,5;8,9;9,0;8,9;8,7;-7,7;nan;nan
2023-01-07 09:00:00;nan;nan;nan;nan;0,0;nan;nan;nan;nan;nan;nan;0;nan;30,9;37,1;38,1;40,5;8,8;8,9;8,8;8,7;-7,8;nan;nan
2023-01-07 10:00:00;nan;nan;nan;nan;0,0;nan;nan;nan;nan;nan;nan;0;nan;30,9;37,1;38,1;40,5;8,9;8,9;8,8;8,7;-7,8;nan;nan
2023-01-07 11:00:00;nan;nan;nan;nan;0,0;nan;nan;nan;nan;nan;nan;0;nan;30,8;37,1;38,1;40,5;8,9;8,9;8,8;8,7;-7,8;nan;nan
2023-01-07 12:00:00;nan;nan;nan;nan;0,0;nan;nan;nan;nan;nan;nan;0;nan;30,8;37,0;38,0;40,5;9,0;8,9;8,8;8,7;-7,8;nan;nan
2023-01-07 13:00:00;nan;nan;nan;nan;0,0;nan;nan;nan;nan;nan;nan;0;nan;30,7;37,0;38,0;40,5;9,0;8,9;8,7;8,7;-7,8;nan;nan
2023-01-07 14:00:00;nan;nan;nan;nan;0,0;nan;nan;nan;nan;nan;nan;0;nan;30,7;37,0;38,0;40,5;9,1;9,0;8,8;8,7;-7,8;nan;nan
2023-01-07 15:00:00;nan;nan;nan;nan;0,0;nan;nan;nan;nan;nan;nan;0;nan;30,6;37,0;38,0;40,5;9,0;9,0;8,8;8,7;-7,8;nan;nan
2023-01-07 16:00:00;nan;nan;nan;nan;0,0;nan;nan;nan;nan;nan;nan;0;nan;30,6;37,0;37,9;40,5;9,0;9,0;8,8;8,7;-7,8;nan;nan
2023-01-07 17:00:00;nan;nan;nan;nan;0,0;nan;nan;nan;nan;nan;nan;0;nan;30,5;37,0;37,9;40,5;8,9;9,0;8,9;8,7;-7,8;nan;nan
2023-01-07 18:00:00;nan;nan;nan;nan;0,0;nan;nan;nan;nan;nan;nan;0;nan;30,5;37,0;37,9;40,5;8,8;9,0;8,9;8,7;-7,8;nan;nan
2023-01-07 19:00:00;nan;nan;nan;nan;0,0;nan;nan;nan;nan;nan;nan;0;nan;30,5;37,0;37,9;40,4;8,8;8,9;8,9;8,7;-7,9;nan;nan
2023-01-07 20:00:00;nan;nan;nan;nan;0,0;nan;nan;nan;nan;nan;nan;0;nan;30,5;36,9;37,8;40,4;8,8;8,9;8,8;8,7;-7,9;nan;nan
2023-01-07 21:00:00;nan;nan;nan;nan;0,0;nan;nan;nan;nan;nan;nan;0;nan;30,4;36,9;37,9;40,4;8,8;8,9;8,8;8,7;-7,9;nan;nan
2023-01-07 22:00:00;nan;nan;nan;nan;0,0;nan;nan;nan;nan;nan;nan;0;nan;30,4;36,9;37,9;40,4;8,8;8,9;8,8;8,7;-7,9;nan;nan
2023-01-07 23:00:00;nan;nan;nan;nan;0,0;nan;nan;nan;nan;nan;nan;0;nan;30,4;36,9;37,8;40,4;8,7;8,8;8,8;8,7;-7,9;nan;nan
2023-01-08 00:00:00;nan;nan;nan;nan;0,0;nan;nan;nan;nan;nan;nan;0;nan;30,4;36,9;37,8;40,4;8,8;8,8;8,8;8,7;-7,9;nan;nan
2023-01-08 01:00:00;nan;nan;nan;nan;0,0;nan;nan;nan;nan;nan;nan;0;nan;30,4;36,9;37,8;40,4;8,8;8,8;8,7;8,7;-7,9;nan;nan
2023-01-08 02:00:00;nan;nan;nan;nan;0,0;nan;nan;nan;nan;nan;nan;0;nan;30,4;36,4;37,8;40,4;8,7;8,8;8,7;8,7;-7,9;nan;nan
2023-01-08 03:00:00;nan;nan;nan;nan;0,0;nan;nan;nan;nan;nan;nan;0;nan;30,3;36,9;37,8;40,4;8,7;8,8;8,7;8,7;-7,9;nan;nan
2023-01-08 04:00:00;nan;nan;nan;nan;0,0;nan;nan;nan;nan;nan;nan;0;nan;30,3;36,9;37,8;40,4;8,7;8,8;8,7;8,7;-7,9;nan;nan
2023-01-08 05:00:00;nan;nan;nan;nan;0,0;nan;nan;nan;nan;nan;nan;0;nan;30,3;36,9;37,8;40,4;8,7;8,8;8,7;8,7;-7,9;nan;nan
2023-01-08 06:00:00;nan;nan;nan;nan;0,0;nan;nan;nan;nan;nan;nan;0;nan;30,3;36,9;37,8;40,4;8,7;8,8;8,7;8,7;-7,9;nan;nan
2023-01-08 07:00:00;nan;nan;nan;nan;0,0;nan;nan;nan;nan;nan;nan;0;nan;30,4;36,9;37,8;40,4;8,6;8,7;8,7;8,7;-7,9;nan;nan
2023-01-08 08:00:00;nan;nan;nan;nan;0,0;nan;nan;nan;nan;nan;nan;0;nan;30,4;36,9;37,8;40,4;8,5;8,7;8,6;8,7;-7,9;nan;nan
2023-01-08 09:00:00;nan;nan;nan;nan;0,0;nan;nan;nan;nan;nan;nan;0;nan;30,4;36,9;37,8;40,4;8,5;8,7;8,6;8,7;-7,9;nan;nan
2023-01-08 10:00:00;nan;nan;nan;nan;0,0;nan;nan;nan;nan;nan;nan;0;nan;30,4;36,9;37,8;40,4;8,5;8,6;8,6;8,7;-7,9;nan;nan
2023-01-08 11:00:00;nan;nan;nan;nan;0,0;nan;nan;nan;nan;nan;nan;0;nan;30,3;36,9;37,8;40,4;8,5;8,6;8,6;8,7;-7,9;nan;nan
2023-01-08 12:00:00;nan;nan;nan;nan;0,0;nan;nan;nan;nan;nan;nan;0;nan;30,4;36,3;37,8;40,4;8,6;8,6;8,5;8,7;-7,9;nan;nan
2023-01-08 13:00:00;nan;nan;nan;nan;0,0;nan;nan;nan;nan;nan;nan;0;nan;30,4;36,9;37,8;40,4;8,7;8,6;8,5;8,7;-7,9;nan;nan
2023-01-08 14:00:00;nan;nan;nan;nan;0,0;nan;nan;nan;nan;nan;nan;0;nan;30,3;36,9;37,8;40,4;8,7;8,7;8,5;8,7;-7,9;nan;nan
2023-01-08 15:00:00;nan;nan;nan;nan;0,0;nan;nan;nan;nan;nan;nan;0;nan;30,3;36,8;37,7;40,4;8,7;8,7;8,6;8,6;-7,9;nan;nan
2023-01-08 16:00:00;nan;nan;nan;nan;0,0;nan;nan;nan;nan;nan;nan;0;nan;30,3;36,8;37,7;40,4;8,6;8,7;8,6;8,6;-7,9;nan;nan
2023-01-08 17:00:00;nan;nan;nan;nan;0,0;nan;nan;nan;nan;nan;nan;0;nan;30,2;36,8;37,7;40,4;8,6;8,7;8,6;8,6;-7,9;nan;nan
2023-01-08 18:00:00;nan;nan;nan;nan;0,0;nan;nan;nan;nan;nan;nan;0;nan;30,2;36,8;37,7;40,4;8,4;8,7;8,6;8,6;-7,9;nan;nan
2023-01-08 19:00:00;nan;nan;nan;nan;0,0;nan;nan;nan;nan;nan;nan;0;nan;30,1;36,8;37,7;40,4;8,3;8,6;8,6;8,6;-8,0;nan;nan
2023-01-08 20:00:00;nan;nan;nan;nan;0,0;nan;nan;nan;nan;nan;nan;0;nan;30,1;36,8;37,6;40,4;8,2;8,5;8,6;8,6;-8,0;nan;nan
2023-01-08 21:00:00;nan;nan;nan;nan;0,0;nan;nan;nan;nan;nan;nan;0;nan;30,1;36,8;37,6;40,4;8,1;8,5;8,5;8,6;-8,0;nan;nan